Weather History for Hammond, LA

Change the Weather History Date:

Monday, May 13, 2013

  Actual Average (KMSY) Record (KMSY)
Temperature  
Mean Temperature 66 °F -  
Max Temperature 80 °F 83 °F 90 °F (1962)
Min Temperature 53 °F 64 °F 41 °F (1960)
Cooling Degree Days 2    
Growing Degree Days 16 (Base 50)    
Moisture  
Dew Point 45 °F    
Average Humidity 52    
Maximum Humidity 82    
Minimum Humidity 21    
Precipitation  
Precipitation 0.00 in - - ()
Sea Level Pressure  
Sea Level Pressure 30.25 in    
Wind  
Wind Speed 3 mph (ENE)    
Max Wind Speed 9 mph    
Max Gust Speed -    
Visibility 10 miles    
Events      
Averages and records for this station are not official NWS values.
T = Trace of Precipitation, MM = Missing Value Source: NWS Daily Summary

Daily Weather History Graph

Daily Weather History Graph

Search for Another Location

Airport:

Trip Planner

Search our weather history database for the weather conditions in past years. The results will help you decide how hot, cold, wet, or windy it might be!

Date:

Astronomy

May. 13, 2013 Rise Set
Actual Time 6:08 AM CDT 7:48 PM CDT
Civil Twilight 5:42 AM CDT 8:14 PM CDT
Nautical Twilight 5:10 AM CDT 8:45 PM CDT
Astronomical Twilight 4:37 AM CDT 9:19 PM CDT
Moon 8:55 AM CDT (5/13) 10:57 PM CDT (5/13)
Length of Visible Light 14h 32m
Length of Day
13h 39m
Waxing Crescent, 12% of the Moon is Illuminated
May 13
Waxing Crescent
May 17
First Quarter
May 24
Full
May 31
Last Quarter
Jun 8
New

Hourly Weather History & Observations

Time (CDT) Temp. Dew Point Humidity Pressure Visibility Wind Dir Wind Speed Gust Speed Precip Events Conditions
12:15 AM 59.0 °F 48.2 °F 67% 30.18 in 10.0 mi North 5.8 mph - N/A   Clear
12:35 AM 59.0 °F 46.4 °F 63% 30.19 in 10.0 mi North 4.6 mph - N/A   Clear
12:55 AM 57.2 °F 48.2 °F 72% 30.19 in 10.0 mi North 4.6 mph - N/A   Clear
1:15 AM 55.4 °F 46.4 °F 72% 30.19 in 10.0 mi North 4.6 mph - N/A   Clear
1:35 AM 55.4 °F 46.4 °F 72% 30.19 in 10.0 mi North 5.8 mph - N/A   Clear
1:55 AM 55.4 °F 46.4 °F 72% 30.19 in 10.0 mi North 3.5 mph - N/A   Clear
2:15 AM 53.6 °F 46.4 °F 77% 30.19 in 10.0 mi Calm Calm - N/A   Clear
2:35 AM 53.6 °F 44.6 °F 72% 30.19 in 10.0 mi Calm Calm - N/A   Clear
2:55 AM 53.6 °F 44.6 °F 72% 30.19 in 10.0 mi Calm Calm - N/A   Clear
3:15 AM 55.4 °F 44.6 °F 67% 30.19 in 10.0 mi Calm Calm - N/A   Clear
3:35 AM 53.6 °F 44.6 °F 72% 30.20 in 10.0 mi Calm Calm - N/A   Clear
3:55 AM 53.6 °F 44.6 °F 72% 30.20 in 10.0 mi Calm Calm - N/A   Clear
4:15 AM 53.6 °F 42.8 °F 67% 30.21 in 10.0 mi NNE 3.5 mph - N/A   Clear
4:35 AM 53.6 °F 42.8 °F 67% 30.22 in 10.0 mi Calm Calm - N/A   Clear
4:55 AM 53.6 °F 42.8 °F 67% 30.22 in 10.0 mi NNE 3.5 mph - N/A   Clear
5:15 AM 53.6 °F 42.8 °F 67% 30.22 in 10.0 mi NNE 4.6 mph - N/A   Clear
5:35 AM 53.6 °F 42.8 °F 67% 30.23 in 10.0 mi NE 3.5 mph - N/A   Clear
5:55 AM 53.6 °F 42.8 °F 67% 30.23 in 10.0 mi NNE 3.5 mph - N/A   Clear
6:15 AM 53.6 °F 42.8 °F 67% 30.24 in 10.0 mi Calm Calm - N/A   Clear
6:35 AM 53.6 °F 42.8 °F 67% 30.26 in 10.0 mi Calm Calm - N/A   Clear
6:55 AM 55.4 °F 42.8 °F 63% 30.27 in 10.0 mi NE 3.5 mph - N/A   Clear
7:15 AM 55.4 °F 42.8 °F 63% 30.28 in 10.0 mi Calm Calm - N/A   Clear
7:35 AM 57.2 °F 42.8 °F 59% 30.28 in 10.0 mi ENE 4.6 mph - N/A   Clear
7:55 AM 59.0 °F 42.8 °F 55% 30.29 in 10.0 mi ENE 8.1 mph - N/A   Clear
8:15 AM 60.8 °F 41.0 °F 48% 30.29 in 10.0 mi East 5.8 mph - N/A   Clear
8:35 AM 62.6 °F 42.8 °F 48% 30.30 in 10.0 mi East 6.9 mph - N/A   Clear
8:55 AM 64.4 °F 42.8 °F 45% 30.30 in 10.0 mi ENE 4.6 mph - N/A   Clear
9:15 AM 66.2 °F 42.8 °F 43% 30.31 in 10.0 mi East 4.6 mph - N/A   Clear
9:35 AM 68.0 °F 41.0 °F 37% 30.31 in 10.0 mi East 5.8 mph - N/A   Clear
9:55 AM 69.8 °F 41.0 °F 35% 30.31 in 10.0 mi East 6.9 mph - N/A   Clear
10:15 AM 71.6 °F 41.0 °F 33% 30.32 in 10.0 mi East 4.6 mph - N/A   Clear
10:35 AM 71.6 °F 39.2 °F 31% 30.32 in 10.0 mi East 4.6 mph - N/A   Clear
10:55 AM 73.4 °F 37.4 °F 27% 30.32 in 10.0 mi ENE 5.8 mph - N/A   Clear
11:15 AM 73.4 °F 37.4 °F 27% 30.32 in 10.0 mi ESE 9.2 mph - N/A   Clear
11:35 AM 73.4 °F 37.4 °F 27% 30.32 in 10.0 mi East 8.1 mph - N/A   Clear
11:55 AM 75.2 °F 37.4 °F 25% 30.31 in 10.0 mi East 6.9 mph - N/A   Clear
12:15 PM 75.2 °F 37.4 °F 25% 30.30 in 10.0 mi East 4.6 mph - N/A   Clear
12:35 PM 77.0 °F 37.4 °F 24% 30.30 in 10.0 mi SE 4.6 mph - N/A   Clear
12:55 PM 77.0 °F 37.4 °F 24% 30.29 in 10.0 mi NNE 4.6 mph - N/A   Clear
1:15 PM 77.0 °F 37.4 °F 24% 30.29 in 10.0 mi East 4.6 mph - N/A   Clear
1:35 PM 78.8 °F 37.4 °F 23% 30.28 in 10.0 mi Calm Calm - N/A   Clear
1:55 PM 77.0 °F 39.2 °F 26% 30.28 in 10.0 mi NE 4.6 mph - N/A   Clear
2:15 PM 78.8 °F 37.4 °F 23% 30.28 in 10.0 mi Calm Calm - N/A   Clear
2:35 PM 78.8 °F 37.4 °F 23% 30.26 in 10.0 mi Calm Calm - N/A   Clear
3:35 PM 80.6 °F 37.4 °F 21% 30.24 in 10.0 mi Calm Calm - N/A   Clear
3:55 PM 80.6 °F 39.2 °F 23% 30.24 in 10.0 mi ENE 3.5 mph - N/A   Clear
4:15 PM 80.6 °F 39.2 °F 23% 30.23 in 10.0 mi NE 4.6 mph - N/A   Clear
4:35 PM 80.6 °F 39.2 °F 23% 30.23 in 10.0 mi East 3.5 mph - N/A   Clear
4:55 PM 80.6 °F 39.2 °F 23% 30.23 in 10.0 mi Calm Calm - N/A   Clear
5:15 PM 78.8 °F 46.4 °F 32% 30.22 in 10.0 mi SE 3.5 mph - N/A   Clear
5:35 PM 78.8 °F 48.2 °F 34% 30.22 in 10.0 mi South 8.1 mph - N/A   Clear
5:55 PM 78.8 °F 48.2 °F 34% 30.22 in 10.0 mi South 6.9 mph - N/A   Clear
6:55 PM 75.2 °F 50.0 °F 41% 30.22 in 10.0 mi South 4.6 mph - N/A   Clear
7:15 PM 73.4 °F 51.8 °F 47% 30.23 in 10.0 mi South 4.6 mph - N/A   Clear
7:35 PM 71.6 °F 53.6 °F 53% 30.23 in 10.0 mi South 3.5 mph - N/A   Clear
7:55 PM 69.8 °F 53.6 °F 56% 30.23 in 10.0 mi Calm Calm - N/A   Clear
8:15 PM 69.8 °F 51.8 °F 53% 30.23 in 10.0 mi Calm Calm - N/A   Clear
8:35 PM 69.8 °F 51.8 °F 53% 30.23 in 10.0 mi Calm Calm - N/A   Clear
8:55 PM 66.2 °F 55.4 °F 68% 30.23 in 10.0 mi Calm Calm - N/A   Clear
9:15 PM 66.2 °F 55.4 °F 68% 30.23 in 10.0 mi Calm Calm - N/A   Clear
9:35 PM 64.4 °F 55.4 °F 73% 30.24 in 10.0 mi Calm Calm - N/A   Clear
9:55 PM 60.8 °F 55.4 °F 82% 30.24 in 10.0 mi Calm Calm - N/A   Clear
10:15 PM 62.6 °F 55.4 °F 77% 30.24 in 10.0 mi Calm Calm - N/A   Clear
10:35 PM 62.6 °F 55.4 °F 77% 30.24 in 10.0 mi Calm Calm - N/A   Clear
10:55 PM 62.6 °F 55.4 °F 77% 30.24 in 10.0 mi Calm Calm - N/A   Clear
11:15 PM 60.8 °F 55.4 °F 82% 30.24 in 10.0 mi Calm Calm - N/A   Clear
11:35 PM 60.8 °F 55.4 °F 82% 30.24 in 10.0 mi Calm Calm - N/A   Clear
11:55 PM 60.8 °F 55.4 °F 82% 30.24 in 10.0 mi Calm Calm - N/A   Clear